Location: Sternwarte Stuttgart
(48.7670°N, 9.1830°E)
Time: 10:54:29
(UTC+02:00)

Daily predictions for brighter satellites

Satellite Brightness Start Highest point End
(mag) Time Altitude Azimuth Time Altitude Azimuth Time Altitude Azimuth
Meteor 2-9 Rocket 4.5 19:42:07 10° SSE 19:47:27 48° E 19:52:59 10° NNE
Cosmos 1271 Rocket 2.8 19:45:32 10° S 19:49:25 87° W 19:53:20 10° N
Cosmos 2278 Rocket 4.0 19:46:14 10° N 19:49:32 15° NNE 19:52:49 10° ENE
IGS 5A 3.6 19:47:08 10° SSE 19:51:06 52° ENE 19:55:07 10° N
Okean O Rocket 2.9 19:48:40 10° ESE 19:52:08 23° ENE 19:55:39 10° N
Landsat 7 4.5 19:48:41 10° SE 19:52:55 34° ENE 19:57:11 10° N
Okean 1-7 4.1 19:49:51 10° NNE 19:53:26 25° ENE 19:57:00 10° SE
Cosmos 1743 Rocket 4.4 19:49:15 10° SSW 19:53:32 57° WNW 19:57:50 10° N
Lacrosse 5 2.4 19:48:43 10° WSW 19:53:47 62° NNW 19:58:52 10° NE
Cosmos 1626 2.1 19:51:07 10° NNW 19:54:36 79° W 19:58:04 10° S
Cosmos 1110 Rocket 4.3 19:51:05 10° NNW 19:56:07 47° ENE 20:01:07 10° SE
Cosmos 1805 Rocket 4.4 19:53:41 10° SSW 19:57:58 55° WNW 20:02:16 10° N
Landsat 4 4.3 19:54:51 10° SE 19:58:06 33° ENE 20:01:23 10° N
Cosmos 1340 Rocket 3.9 19:55:10 10° N 19:58:39 26° ENE 20:02:06 10° SE
Cosmos 1844 3.8 19:55:15 10° NNW 20:01:05 77° ENE 20:06:52 10° SSE
Cosmos 1536 3.4 19:57:20 10° SSW 20:01:18 63° WNW 20:05:15 10° N
Resurs 01 Rocket 3.4 19:59:02 10° E 20:01:36 15° ENE 20:04:09 10° NNE
COSMO-SKYMED 1 3.2 19:57:24 10° N 20:01:43 63° WNW 20:06:00 10° SSW
Cosmos 2181 Rocket 4.5 19:57:27 10° SSE 20:03:20 39° E 20:09:12 10° NNE
YAOGAN 1 2.6 20:04:05 10° SSE 20:08:23 88° W 20:12:43 10° NNW
SJ-6B 3.5 20:05:03 10° SE 20:08:45 36° ENE 20:12:28 10° N
SL-08 R/B 4.0 20:05:27 10° N 20:10:20 62° WNW 20:15:11 10° SSW
Cosmos 1862 Rocket 3.5 20:06:09 10° N 20:10:30 78° E 20:14:50 10° SSE
Cosmos 1733 3.8 20:08:34 10° SSE 20:11:53 33° E 20:15:13 10° NNE
DELTA 2 DEB (DPAF) 4.0 20:07:55 10° NNE 20:12:16 72° ESE 20:16:34 10° S
Cosmos 2333 Rocket 2.6 20:07:19 10° S 20:12:35 42° ESE 20:17:52 10° NE
Cosmos 1633 Rocket 3.0 20:08:19 10° S 20:12:36 66° E 20:16:54 10° NNE
Okean-O 4.1 20:14:20 13° E 20:16:40 19° ENE 20:19:46 10° NNE
Cosmos 2360 Rocket 2.2 20:11:53 10° S 20:17:25 59° ESE 20:22:59 10° NE
CZ-4 R/B 1.4 20:14:05 10° SSE 20:17:54 56° ENE 20:21:41 10° N
COSMOS 2428 4.0 20:14:39 10° SE 20:18:13 17° E 20:21:47 10° ENE
USA 308 3.1 20:16:36 10° WNW 20:19:55 44° NNE 20:22:35 16° E
Cosmos 1707 3.1 20:17:10 10° NNW 20:20:56 66° W 20:24:39 10° S
ATLAS 3B R/B 3.9 20:16:53 10° SE 20:21:16 18° ESE 20:25:48 10° ENE
Resurs 1-3 4.0 20:17:28 10° SE 20:21:35 43° ENE 20:25:45 10° N
Cosmos 1975 3.0 20:20:29 10° SSE 20:24:10 44° E 20:27:53 10° NNE
Meteor 2-11 Rocket 4.4 20:22:26 10° N 20:28:34 79° ENE 20:34:42 10° SSE
CENTAUR R/B 4.4 20:23:52 10° WNW 20:29:35 27° N 20:36:15 10° NE
Cosmos 1674 3.6 20:27:02 10° NNW 20:30:31 48° W 20:33:59 10° S
Cosmos 2285 Rocket 4.1 20:24:39 10° SSW 20:31:00 81° WNW 20:37:20 10° NNE
Cosmos 1331 Rocket 4.0 20:27:28 10° NNW 20:32:46 82° ENE 20:38:03 10° SSE
NOSS 2-3 (C) 4.1 20:32:25 10° S 20:35:37 28° ESE 20:37:55 17° ENE
Cosmos 1470 Rocket 3.4 20:34:06 10° S 20:38:25 75° E 20:42:48 10° NNE
Cosmos 1726 1.7 20:35:18 10° S 20:38:40 84° E 20:42:05 10° N
Cosmos 2084 4.4 20:36:30 10° NW 20:40:01 38° SW 20:43:37 10° SSE
Cosmos 1452 Rocket 3.8 20:35:25 10° NNW 20:40:41 69° WSW 20:45:54 10° SSE
NOSS 2-3 (D) 4.1 20:37:27 10° S 20:40:42 29° ESE 20:42:15 22° E
USA 215 3.5 20:34:43 10° ENE 20:41:03 49° SE 20:47:19 10° SSW
Cosmos 1821 Rocket 4.1 20:36:14 10° N 20:42:19 53° ENE 20:48:27 10° SSE
COSMOS 2455 3.5 20:39:32 10° NNW 20:45:11 39° NE 20:48:29 22° E
Cosmos 494 Rocket 4.3 20:40:28 10° SSW 20:45:42 71° WNW 20:50:57 10° NNE
Okean 3 3.4 20:41:34 10° N 20:45:43 85° W 20:49:50 10° S
Meteor 2-10 4.2 20:40:34 10° S 20:46:17 80° E 20:52:01 10° NNE
SPOT 1/Viking Rocket 3.7 20:43:07 15° SE 20:47:19 54° ENE 20:52:21 10° N
Cosmos 2292 4.1 20:44:20 10° S 20:47:30 63° E 20:50:30 10° NNE
Cosmos 1048 Rocket 4.2 20:44:29 10° SSW 20:49:51 78° WNW 20:55:16 10° NNE
Cosmos 2366 rocket 4.1 20:45:44 10° NNW 20:51:57 78° W 20:58:04 10° S
BREEZE-M R/B 4.4 20:47:48 10° W 20:52:58 85° N 21:00:39 21° E
SL-8 Rocket 4.4 20:47:40 10° NNW 20:53:51 66° W 21:00:03 10° S
ISS -3.2 20:51:12 10° WNW 20:54:29 50° N 20:55:41 32° ENE
USA 305 3.2 20:55:46 10° NW 20:57:44 23° N 20:57:46 23° NNE
Nadezhda 3 Rocket 4.3 20:52:51 10° SSE 20:58:49 45° E 21:04:51 10° NNE
Cosmos 1844 Rocket 4.2 20:57:00 10° NW 21:01:59 34° WSW 21:06:57 10° S
Terra 3.8 21:02:45 13° NE 21:02:45 13° NE 21:04:38 10° NNE
SL-16 R/B 3.8 20:59:43 10° WSW 21:04:56 37° NW 21:10:12 10° NNE
Cosmos 1805 3.1 21:01:40 10° S 21:05:26 84° W 21:09:14 10° N
Cosmos 1703 Rocket 3.6 21:01:25 10° N 21:05:53 84° W 21:09:36 15° S
ADEOS Rocket 3.6 21:00:02 16° SE 21:06:27 64° ENE 21:13:52 10° N
SL-14 R/B 3.4 21:03:40 10° NNW 21:07:37 75° W 21:10:26 18° S
BREEZE M DEB (TANK) 4.1 21:05:34 10° SSW 21:05:46 12° SSW 21:05:46 12° SSW
Cosmos 2219 Rocket 2.0 21:03:35 10° SSW 21:09:08 73° ESE 21:14:45 10° NNE
USA 306 2.9 21:06:45 10° WNW 21:10:33 56° NNE 21:11:24 44° ENE
NOSS 2-3 (E) 3.2 21:07:56 10° SSW 21:11:36 62° SE 21:13:24 30° ENE
CSL-04 Debris 4.2 21:09:46 13° SSE 21:14:44 82° WSW 21:20:13 10° NNW
Okean 2 3.2 21:11:31 10° N 21:15:34 86° ENE 21:17:04 38° SSE
CZ-4C R/B 3.7 21:12:15 10° N 21:15:35 52° WNW 21:18:53 10° SSW
USA 267 3.2 21:13:24 30° ESE 21:16:56 84° NNE 21:23:31 10° NW
Cosmos 1933 Rocket 3.6 21:13:00 10° SSW 21:17:24 79° W 21:21:49 10° N
USA 186 2.3 21:17:05 38° SSW 21:17:53 52° W 21:20:50 10° NNW
SL-8 R/B 3.6 21:13:13 10° W 21:17:59 79° SSW 21:19:18 47° ESE
Cosmos 1943 Rocket 3.4 21:13:17 10° NNW 21:17:59 26° NE 21:19:16 24° ENE
USA 307 3.1 21:17:20 10° NW 21:19:18 34° NNW 21:19:18 34° NNW
APEX 3.1 21:17:45 10° NNW 21:21:47 61° ENE 21:21:49 61° ENE
CZ-4B R/B 4.2 21:17:26 10° S 21:22:26 43° W 21:27:29 10° NNW
Okean O Rocket 2.6 21:24:10 11° S 21:28:11 45° W 21:32:28 10° NNW
SPOT 5 3.8 21:31:11 31° NE 21:31:11 31° NE 21:34:45 10° N
Cosmos 2322 Rocket 3.8 21:25:44 10° WSW 21:30:49 35° NW 21:35:58 10° NNE
CZ-4C R/B 4.4 21:26:39 10° WNW 21:31:02 22° N 21:36:13 10° NE
CARTOSAT-1 3.4 21:32:57 68° ESE 21:33:20 74° ENE 21:37:37 10° N
IRS-1C Rocket 4.0 21:33:25 49° SE 21:34:45 70° ENE 21:40:01 10° N
Cosmos 2278 Rocket 2.3 21:29:19 10° NNW 21:34:56 56° ENE 21:36:02 48° E
Resurs 01 Rocket 1.7 21:36:15 47° S 21:37:29 77° WSW 21:41:58 10° NNW
Lacrosse 5 3.3 21:32:52 10° WNW 21:37:31 33° N 21:40:18 20° NE
CSL-04 Rocket 4.1 21:34:22 18° S 21:38:11 58° WSW 21:43:26 10° NNW
ERS-1 Rocket 4.0 21:41:43 30° NE 21:41:43 30° NE 21:45:32 10° N
Cosmos 1818 3.5 21:39:25 10° NW 21:44:56 82° NE 21:45:51 63° SE
BREEZE-M DEB (TANK) 4.4 21:31:01 10° WSW 21:48:28 71° S 21:50:17 49° ESE
Okean-O 3.0 21:51:51 49° SW 21:52:42 59° W 21:57:05 10° NNW
CZ-4 R/B 4.2 21:50:54 10° WSW 21:53:01 14° W 21:55:06 10° WNW
BREEZE-M DEB (TANK) 3.7 21:52:01 10° W 21:54:41 49° SW 21:54:41 49° SW
USA 308 3.8 21:51:37 10° WNW 21:54:06 38° W 21:54:06 38° W
Cosmos 1766 4.0 21:56:26 48° NNW 21:56:26 48° NNW 21:59:28 10° N
Cosmos 2333 Rocket 3.6 21:51:37 10° WSW 21:56:54 39° NW 22:02:13 10° NNE
Cosmos 1869 Rocket 4.1 21:55:09 32° SW 21:57:00 57° WNW 22:01:20 10° N
Meteor 1-24 Rocket 4.0 21:52:10 10° N 21:57:04 48° NE 21:57:04 48° NE
COSMOS 2428 2.6 21:56:01 10° SSW 22:01:43 84° WNW 22:07:26 10° NNE
Cosmos 2360 Rocket 4.1 21:56:53 10° WSW 22:01:47 30° NW 22:06:44 10° NNE
Cosmos 2242 Rocket 4.5 21:58:22 10° NNW 22:02:40 46° W 22:03:34 40° SW
Cosmos 1605 Rocket 3.9 21:56:53 10° N 22:02:55 59° ENE 22:02:57 59° ENE
Cosmos 2322 4.0 21:57:45 10° SW 22:03:26 67° WNW 22:09:11 10° NNE
Cosmos 1535 Rocket 4.3 21:59:37 10° N 22:05:46 76° E 22:06:17 71° ESE
Cosmos 2237 Rocket 4.2 22:10:08 16° NE 22:10:08 16° NE 22:11:12 10° NE
Cosmos 1339 Rocket 4.3 22:08:21 58° S 22:09:42 85° E 22:16:03 10° N
ATLAS 3B R/B 2.6 22:03:51 10° SSW 22:10:45 77° SE 22:18:12 10° NE
Cosmos 2369 Rocket 3.9 22:06:50 10° N 22:10:53 20° NE 22:10:56 20° NE
MOS 1 4.5 22:12:48 55° SSW 22:13:50 67° WSW 22:19:29 10° NNW
Cosmos 1992 Rocket 4.4 22:15:39 10° NNW 22:20:44 54° WSW 22:20:54 54° WSW
MetOp-B 4.2 22:22:13 75° W 22:22:13 75° W 22:27:29 10° NNW
CENTAUR R/B 4.3 22:16:08 10° NW 22:22:41 31° NNE 22:26:45 22° ENE
NOSS 0 Rocket 4.1 22:24:46 61° NE 22:24:46 61° NE 22:29:52 10° NNE
Cosmos 1934 Rocket 4.3 22:17:34 10° NNW 22:23:52 64° W 22:25:24 49° SSW
Spot 2 Rocket 4.3 22:25:32 43° NNE 22:25:32 43° NNE 22:29:05 10° N
USA 215 3.4 22:19:39 21° NE 22:24:15 70° NNW 22:30:45 10° WSW
Cosmos 1932 4.4 22:17:48 10° NW 22:24:16 74° NE 22:24:19 74° NE
Ariane Rocket 3.5 22:28:26 55° N 22:28:26 55° N 22:32:24 10° NNW
COSMOS 2455 3.3 22:25:29 10° NW 22:31:18 51° WSW 22:31:38 51° SW
ISS -0.6 22:28:02 10° WNW 22:28:37 14° WNW 22:28:37 14° WNW
Terra 3.1 22:41:30 35° N 22:41:30 35° N 22:44:13 10° N
Cosmos 2219 Rocket 4.2 22:49:05 10° W 22:53:39 25° NW 22:58:16 10° N
USA 267 4.2 23:00:46 36° WSW 23:00:46 36° WSW 23:06:21 10° WNW
Cosmos 1943 Rocket 3.0 22:56:38 10° NNW 23:00:47 49° NW 23:00:47 49° NW
Cosmos 2278 Rocket 3.9 23:13:58 10° NW 23:17:52 26° W 23:17:52 26° W
Lacrosse 5 3.7 23:16:40 10° NW 23:19:29 28° NNW 23:19:29 28° NNW
CZ-4C R/B 4.3 23:16:23 10° NW 23:21:42 27° NNE 23:23:43 24° NE
Cosmos 2237 Rocket 3.9 23:51:55 29° NNW 23:51:55 29° NNW 23:55:15 10° NNE
